Find Starlink 32080

NORAD ID: 59683 Int'l Des: 2024-086 Owner: SPXS Country: US Constellation: starlink operational
LEOCIRCULAR

リアルタイム位置

3D地球を読み込み中...

Starlink 32080について

説明を読み込み中...

次回通過

Passes for default location (London). Set your location on the main map for personalized predictions.

高度履歴

Loading altitude history...

軌道要素

1 59683U 24086B 26125.29435323 .00000832 00000-0 39748-4 0 9996
2 59683 43.0009 104.1246 0001128 272.7863 87.2860 15.27575444112733
Epoch: May 5, 2026 • Age: 16 hours

現在のステータス

高度 487.4 km
速度 7.62 km/s
衛星直下点 -21.23°S, 127.09°W
打ち上げ日 May 8, 2024
運用期間 1.9 years
タイプ internet

技術仕様

分類 Payload
質量 730.00 kg
乾燥質量 700.00 kg
総質量 730.00 kg
長さ 0.30 m
直径 4.10 m
スパン 29.00 m
形状 Box + pan
製造者 SPXS
バスタイプ Starlink V2M
フェーズステータス In Orbit
所有者/国 SPXS/US

Most Searched